COSMOS 1275 DEB, 20505

Orbit data source: Space-Track

COSMOS 1275 DEB, 20505 is space debris in LEO originally from a launch on Thu, 04 Jun 1981 UTC launched from the Plesetsk Missile And Space Complex (PKMTR). Debris objects in space refer to the collection of defunct objects orbiting the Earth. Examples of debris include non-operational satellites, rocket bodies, and fragments generated from explosions, collisions, or faulty payload assembly.

Loading next visibility...
Identifier
20505, 1981-053MM
Orbit
LEO
Country
Flag of CISCIS
Related business
Manufacturer
Unknown
Mission
Spacecraft
Bus & Motor
Unknown
Mass
Unknown
Launch date (UTC)
1981-06-04 (45 years ago)
Launch vehicle
Unknown
Launch site
Plesetsk Missile And Space Complex (PKMTR)
Object type
Payload
Rocket body
Debris
Shape & HBR
Unknown shape, 0.1 m
Radar Cross Section
Small (<0.1 m²)

Expand to show TLE details & history
Last TLE update: 1 week ago

TLE from 1 week ago
0 COSMOS 1275 DEB
1 20505U 81053MM  26165.51661982  .00006353  00000-0  13979-2 0  9995
2 20505  83.1507 253.8401 0012640  21.4358 338.7371 14.57320692675073
Epoch: 2026-06-14T12:23Z
TLE epoch observation values (Epoch: 2026-06-14T12:23:55.952Z)
Latitude
-0.00002°
Longitude
165.04073°
Altitude
696.518 km
Speed
7.512 km/s
True Right ascension
16h 55m 21s
True Declination
0° 00' 00"
Sunlit
Object was in full shadow at epoch
Visualization orbit readout
Latitude
Unknown
Longitude
Unknown
Altitude
Unknown
Speed
Unknown
Apparent Right ascension
Unknown
Apparent Declination
Unknown
Sunlit
N/A
Visualization observer readout
Local Sidereal Time
14:41:49
Azimuth
Unknown
Elevation
Unknown
Doppler factor
Unknown
Orbital elements
Apogee altitude
707.812 km
Perigee altitude
689.921 km
Semi-major axis
7,077.003 km
Eccentricity
0.00126
Inclination
83.1507°
RAAN
253.8401°
Arg. of periapsis
21.4358°
True anomaly
338.6845°
Mean anomaly
338.7371°
Eccentric anomaly
338.71081°
Mean motion
3.6456 °/min
Orbital period
98.75 mins
BSTAR
0.0013979
Loading maneuver chart data...
Computing Atmospheric mass density...
Loading historical data...
Loading historical data...
Loading historical data...
Loading historical data...
Loading historical data...
Loading historical data...
Loading historical data...

Documentation

Showing up to 5 results
|